Location: Walsall
(52.5862°N, 1.9829°W)
Time: 13:16:25
(UTC+01:00)

Tiangong - Pass Details

Date: 27 June 2021
Orbit: 373 x 386 km, 41.5° (Epoch: 31 July)

Event Time Altitude Azimuth Distance (km) Brightness Sun altitude
Exits shadow 03:06:31 11° 170° (S) 1,336 3.3 -10.0°
Drops below altitude 10° 03:07:11 10° 158° (SSE) 1,385 3.5 -10.0°
Sets 03:10:32 0° 119° (ESE) 2,243 4.9 -9.8°
